TimeEET,TemperatureF,Dew PointF,Humidity,Sea Level PressureIn,VisibilityMPH,Wind Direction,Wind SpeedMPH,Gust SpeedMPH,PrecipitationIn,Events,Conditions,WindDirDegrees,DateUTC
12:20 AM,32.0,28.4,87,30.21,-9999.0,East,8.1,-,N/A,,Clear,80,2012-11-19 22:20:00
12:50 AM,32.0,30.2,93,30.21,-9999.0,East,6.9,-,N/A,,Clear,100,2012-11-19 22:50:00
1:20 AM,33.8,30.2,87,30.21,-9999.0,East,11.5,-,N/A,,Clear,80,2012-11-19 23:20:00
1:50 AM,28.4,26.6,93,30.21,-9999.0,Variable,1.2,-,N/A,,Clear,0,2012-11-19 23:50:00
2:00 AM,29,28,94,,6,SSW,1.2,,,,,210,2012-11-20 00:00:00
2:20 AM,26.6,24.8,93,30.21,-9999.0,Calm,Calm,-,N/A,,Clear,0,2012-11-20 00:20:00
2:50 AM,24.8,24.8,100,30.21,-9999.0,Variable,2.3,-,N/A,,Clear,0,2012-11-20 00:50:00
3:20 AM,24.8,24.8,100,30.18,-9999.0,Variable,1.2,-,N/A,,Clear,0,2012-11-20 01:20:00
3:50 AM,23.0,23.0,100,30.21,-9999.0,Variable,2.3,-,N/A,,Clear,0,2012-11-20 01:50:00
4:20 AM,24.8,24.8,100,30.21,-9999.0,Variable,2.3,-,N/A,,Clear,0,2012-11-20 02:20:00
4:50 AM,24.8,24.8,100,30.21,-9999.0,WSW,3.5,-,N/A,,Clear,240,2012-11-20 02:50:00
5:20 AM,23.0,23.0,100,30.21,-9999.0,SSW,4.6,-,N/A,,Clear,210,2012-11-20 03:20:00
5:50 AM,23.0,23.0,100,30.21,-9999.0,SSW,4.6,-,N/A,,Clear,200,2012-11-20 03:50:00
6:20 AM,23.0,23.0,100,30.24,3.1,Variable,2.3,-,N/A,,Mist,0,2012-11-20 04:20:00
6:50 AM,24.8,23.0,93,30.24,-9999.0,Variable,1.2,-,N/A,,Clear,0,2012-11-20 04:50:00
7:20 AM,24.8,23.0,93,30.24,-9999.0,WSW,3.5,-,N/A,,Clear,240,2012-11-20 05:20:00
7:50 AM,26.6,26.6,100,30.24,-9999.0,SSW,3.5,-,N/A,,Clear,200,2012-11-20 05:50:00
8:00 AM,27,26,95,,12,SSW,3.5,,,,,200,2012-11-20 06:00:00
8:20 AM,28.4,26.6,93,30.24,6.2,SW,3.5,-,N/A,,Scattered Clouds,220,2012-11-20 06:20:00
8:50 AM,30.2,28.4,93,30.24,6.2,West,2.3,-,N/A,,Scattered Clouds,280,2012-11-20 06:50:00
9:20 AM,33.8,32.0,93,30.24,6.2,Variable,1.2,-,N/A,,Scattered Clouds,0,2012-11-20 07:20:00
9:50 AM,39.2,32.0,75,30.21,6.2,East,11.5,-,N/A,,Scattered Clouds,90,2012-11-20 07:50:00
10:20 AM,41.0,32.0,70,30.21,6.2,East,16.1,-,N/A,,Scattered Clouds,100,2012-11-20 08:20:00
10:50 AM,41.0,32.0,70,30.18,6.2,East,18.4,-,N/A,,Scattered Clouds,100,2012-11-20 08:50:00
11:20 AM,42.8,32.0,66,30.18,6.2,East,17.3,-,N/A,,Scattered Clouds,100,2012-11-20 09:20:00
11:50 AM,42.8,32.0,66,30.18,6.2,East,18.4,-,N/A,,Scattered Clouds,100,2012-11-20 09:50:00
12:20 PM,42.8,32.0,66,30.18,6.2,East,16.1,-,N/A,,Scattered Clouds,90,2012-11-20 10:20:00
12:50 PM,42.8,32.0,66,30.18,6.2,East,16.1,-,N/A,,Scattered Clouds,90,2012-11-20 10:50:00
1:20 PM,42.8,32.0,66,30.18,6.2,East,15.0,-,N/A,,Scattered Clouds,90,2012-11-20 11:20:00
1:50 PM,41.0,32.0,70,30.18,6.2,East,15.0,-,N/A,,Scattered Clouds,100,2012-11-20 11:50:00
2:00 PM,42,32,59,,12,East,15.0,,,,Partly Cloudy,100,2012-11-20 12:00:00
2:20 PM,42.8,32.0,66,30.18,6.2,East,12.7,-,N/A,,Mostly Cloudy,100,2012-11-20 12:20:00
2:50 PM,41.0,32.0,70,30.18,6.2,East,13.8,-,N/A,,Mostly Cloudy,100,2012-11-20 12:50:00
3:20 PM,41.0,32.0,70,30.18,6.2,East,11.5,-,N/A,,Mostly Cloudy,90,2012-11-20 13:20:00
3:50 PM,41.0,32.0,70,30.18,6.2,East,9.2,-,N/A,,Mostly Cloudy,100,2012-11-20 13:50:00
4:20 PM,39.2,32.0,75,30.18,6.2,East,9.2,-,N/A,,Mostly Cloudy,90,2012-11-20 14:20:00
4:50 PM,39.2,32.0,75,30.18,6.2,East,9.2,-,N/A,,Mostly Cloudy,80,2012-11-20 14:50:00
5:20 PM,39.2,32.0,75,30.18,6.2,ENE,6.9,-,N/A,,Mostly Cloudy,70,2012-11-20 15:20:00
5:50 PM,39.2,32.0,75,30.21,6.2,East,10.4,-,N/A,,Mostly Cloudy,100,2012-11-20 15:50:00
6:20 PM,39.2,32.0,75,30.21,6.2,East,9.2,-,N/A,,Mostly Cloudy,80,2012-11-20 16:20:00
6:50 PM,39.2,32.0,75,30.21,6.2,East,8.1,-,N/A,,Mostly Cloudy,80,2012-11-20 16:50:00
7:20 PM,39.2,32.0,75,30.18,6.2,East,11.5,-,N/A,,Mostly Cloudy,90,2012-11-20 17:20:00
7:50 PM,39.2,32.0,75,30.18,6.2,East,10.4,-,N/A,,Mostly Cloudy,90,2012-11-20 17:50:00
8:00 PM,39,33,71,,12,East,10.4,,,,Partly Cloudy,90,2012-11-20 18:00:00
8:20 PM,39.2,33.8,81,30.18,6.2,East,9.2,-,N/A,,Mostly Cloudy,90,2012-11-20 18:20:00
8:50 PM,39.2,32.0,75,30.18,6.2,East,10.4,-,N/A,,Mostly Cloudy,80,2012-11-20 18:50:00
9:20 PM,39.2,33.8,81,30.18,6.2,ENE,8.1,-,N/A,,Mostly Cloudy,70,2012-11-20 19:20:00
9:50 PM,39.2,33.8,81,30.18,6.2,NE,9.2,-,N/A,,Mostly Cloudy,50,2012-11-20 19:50:00
10:20 PM,39.2,33.8,81,30.18,6.2,East,4.6,-,N/A,,Mostly Cloudy,90,2012-11-20 20:20:00
10:50 PM,37.4,32.0,81,30.18,6.2,Variable,2.3,-,N/A,,Mostly Cloudy,0,2012-11-20 20:50:00
11:20 PM,39.2,33.8,81,30.18,6.2,East,5.8,-,N/A,,Mostly Cloudy,80,2012-11-20 21:20:00
11:50 PM,39.2,33.8,81,30.18,6.2,ENE,8.1,-,N/A,,Mostly Cloudy,70,2012-11-20 21:50:00